BEIDOU-3 M3 (C21) (43208 NORAD) Tracking and Keplerian Element Data

This shows tracking and keplerian element data for the satellite.

Feedback or suggestion? Click here.




ElementValue
Catalog43208
NameBEIDOU-3 M3 (C21)
Epoch Orbit4294
Epoch Day158.27104251
Epoch Year2024
RAAN87.7161
Inclination56.0138
Eccentricity0.000919
Argument of Perigee320.623
Mean Anonmoly39.2789
Mean Motion1.86231263
Decay Rate-5.9E-07
L11 43208U 18018B 24158.27104251 -.00000059 00000+0 00000+0 0 9990
L22 43208 56.0138 87.7161 0009190 320.6230 39.2789 1.86231263 42946



Live tracking and technical data element details for BEIDOU-3 M3 (C21) (NORAD 43208). BEIDOU-3 M3 (C21) can be tracked NOW for your location showing map with azimuth and elevation plus other details from your city location.







IsCatalogInMostPopularTable: catalog: 43208, numindb: 610
Update: records affected: 1



GetName: 43208 BEIDOU-3 M3 (C21)

Hit Count: updated at: Fri, 14 Jun 2024 19:33:31 GMT